Temperature
15 15 14 14 14 14 14 14 14 14 14 14 14 14 14 14 14 14 13 13 13 13 13 13 13 13 13 13 13 13 13 13 13 12 12 12 12 12 12 12 12 12 12
15 14 14 14 14 14 14 13 13 13 13 13 13 13 13 13 13 13 13 13 13 13 13 13 13 13 13 13 13 13 13 12 12 12 12 12 12 12 12 12 12 11 11
14 14 14 14 14 14 14 13 13 13 13 13 13 13 13 13 13 13 13 13 13 13 13 13 13 13 13 13 13 13 12 12 12 12 12 12 12 12 12 12 11 11 11
14 14 14 14 14 14 13 13 13 13 13 13 13 13 13 13 13 13 13 13 13 13 13 13 13 12 12 12 12 12 12 12 12 12 12 12 12 12 11 11 11 11 11
14 13 13 13 13 13 13 13 13 13 13 13 13 13 13 13 13 13 13 13 13 13 13 13 13 12 12 12 12 12 12 12 12 12 12 12 12 11 11 11 11 11 11
13 13 13 13 13 13 13 13 13 12 12 12 12 12 12 12 12 12 12 12 12 12 12 12 12 12 12 12 12 12 12 12 12 12 12 12 11 11 11 11 11 11 11
13 13 13 13 13 13 12 12 12 12 12 12 12 12 12 12 12 12 12 12 12 12 12 12 12 12 12 12 12 12 12 12 11 11 12 11 11 11 11 11 11 10 10
13 12 12 12 12 12 12 12 12 12 12 12 12 12 12 12 12 12 12 12 12 12 12 12 12 12 12 12 12 11 11 11 11 11 11 11 11 11 10 10 10 10 10
13 12 12 12 12 11 11 12 12 12 12 12 11 11 11 11 11 11 11 11 11 11 11 11 11 12 12 11 11 11 11 11 11 11 11 11 10 10 10 10 10 10 10
12 12 12 12 11 11 11 11 11 11 11 11 11 11 11 11 11 11 11 11 11 11 11 11 11 11 11 11 11 11 11 11 11 11 10 10 10 10 10 10 10 10 9
12 11 11 11 11 11 11 11 11 11 11 11 11 11 11 11 11 11 11 11 11 11 11 11 11 11 11 11 11 11 11 10 10 10 10 10 10 10 10 9 9 9 9
11 11 11 11 11 10 10 11 10 10 10 11 11 11 10 10 10 10 10 10 10 10 10 10 10 10 10 10 10 10 10 10 10 10 10 10 10 9 9 9 9 9 9
11 10 10 10 10 10 10 10 10 10 10 10 10 10 10 10 10 10 10 10 10 10 10 10 10 10 10 10 10 10 9 9 9 9 9 9 9 9 9 9 9 9 8
10 10 10 10 10 10 10 9 10 10 10 9 10 10 10 10 10 10 10 10 10 10 10 9 9 9 9 9 9 9 9 9 9 9 9 9 8 8 8 8 8 8 8
10 10 10 10 10 9 9 9 9 9 9 9 9 9 9 9 9 9 9 9 9 9 9 9 9 9 9 9 9 9 8 8 8 8 8 8 8 8 8 8 8 7 7
10 9 9 9 9 9 9 9 9 9 9 9 9 9 9 9 9 9 9 9 9 9 8 8 8 8 8 8 8 8 8 8 8 8 8 8 7 7 7 7 7 7 7
9 9 9 9 9 9 8 8 8 8 8 8 8 8 8 8 8 8 8 8 8 8 8 8 8 8 8 8 8 8 7 7 7 7 7 7 7 7 7 7 6 6 6
8 8 8 8 8 8 8 8 8 8 8 8 8 8 7 7 7 7 7 7 7 7 7 7 7 7 7 7 7 7 7 7 7 7 7 6 6 6 6 6 6 6 6
8 8 8 8 8 7 7 7 7 7 7 7 7 7 7 7 7 6 6 6 6 6 6 6 6 6 6 6 6 6 6 6 6 6 6 6 6 6 6 6 6 6 6
8 7 7 7 7 7 7 7 7 7 7 6 6 6 6 6 6 6 6 6 6 6 6 6 6 6 6 6 6 6 6 6 6 6 6 6 6 6 5 5 5 5 5
7 7 7 7 6 6 6 6 6 6 6 6 6 6 5 5 5 5 5 5 5 5 5 5 5 5 5 5 5 5 5 5 5 5 5 5 5 5 5 5 5 5 5
6 6 6 6 6 6 6 6 6 5 5 5 5 5 5 5 5 5 5 5 5 5 5 5 5 5 5 5 5 5 5 5 5 5 5 5 5 5 5 4 4 4 4
6 6 6 6 6 5 5 5 5 5 5 5 5 5 5 4 4 4 4 4 4 4 4 4 4 4 4 4 4 4 4 4 4 4 4 4 4 4 4 4 4 4 4
5 5 5 5 5 5 5 5 4 4 4 4 4 4 4 4 4 4 4 4 4 4 4 4 4 4 4 4 4 4 4 4 4 4 4 4 4 4 4 3 3 3 3
5 5 5 5 4 4 4 4 4 4 4 4 4 4 4 4 4 4 4 4 4 4 4 4 3 3 3 3 3 4 4 3 3 3 3 3 3 3 3 3 3 3 3
4 4 4 4 4 4 4 4 3 3 3 3 3 3 4 4 4 4 3 3 3 3 3 3 3 3 3 3 3 3 3 3 3 3 3 3 3 3 3 3 2 2 2
Wind_Speed
4 3 3 3 2 2 2 3 2 2 1 2 2 2 1 1 1 1 1 1 2 1 1 2 2 2 2 2 2 3 2 3 3 1 0 1 1 1 3 3 3 3 3
4 4 3 3 3 2 3 3 2 2 2 2 2 2 2 1 1 1 1 1 2 2 1 2 2 2 2 2 3 3 3 2 3 2 0 1 0 0 1 2 2 2 2
3 3 3 3 3 3 3 3 3 3 2 2 2 2 2 2 2 1 1 1 1 2 2 2 2 3 2 2 3 2 2 2 2 3 1 0 0 1 1 2 2 2 2
3 3 4 4 4 4 3 3 3 3 3 2 2 2 2 2 2 2 1 1 1 1 1 2 2 3 4 3 3 3 3 3 3 3 2 0 0 0 1 1 1 1 2
3 3 4 3 3 3 2 2 2 3 3 2 2 1 1 1 2 2 2 2 1 1 0 1 1 2 4 4 3 4 4 3 3 3 2 1 0 1 1 1 1 1 2
3 4 3 2 3 3 3 2 2 2 2 2 2 2 1 2 2 3 3 2 2 1 1 1 1 1 2 2 4 5 6 6 5 3 2 3 3 2 2 2 1 0 2
3 3 3 3 3 4 3 3 3 3 2 2 2 2 3 3 3 3 4 3 2 2 2 1 1 1 1 1 2 3 4 5 7 6 4 4 4 4 3 2 2 2 2
2 2 3 3 3 3 3 3 3 2 3 3 2 2 2 3 3 3 4 3 2 2 2 3 3 2 2 2 2 2 1 2 4 4 5 5 4 5 5 4 4 2 0
2 3 3 3 3 3 3 3 3 2 2 2 2 2 2 3 3 3 3 2 2 2 2 2 3 3 3 4 3 3 2 2 2 4 4 3 3 4 5 3 3 2 1
4 4 3 3 4 4 4 3 2 3 3 2 2 2 3 3 3 3 3 2 2 2 2 2 4 4 4 5 4 4 4 3 2 1 1 1 2 3 5 5 4 3 2
3 2 3 3 4 4 3 3 2 2 2 2 2 2 2 3 4 4 3 3 3 3 3 3 3 4 4 5 5 5 5 4 2 2 1 0 0 1 3 4 4 4 4
1 2 2 2 3 3 3 3 2 3 3 2 1 2 2 3 3 4 4 4 4 4 4 4 4 4 4 4 4 4 5 4 2 2 1 1 2 2 3 3 4 5 5
2 2 3 2 2 2 3 4 3 3 3 2 2 2 3 2 2 4 5 4 4 3 4 5 5 4 3 3 3 4 3 3 3 2 3 3 3 3 2 1 1 2 2
2 2 2 2 2 2 2 3 3 3 3 3 3 3 3 2 2 2 2 2 3 2 2 3 3 2 2 2 1 2 2 3 3 4 4 3 2 1 1 1 1 1 1
2 2 2 2 3 2 2 2 3 4 4 4 4 4 3 4 4 4 2 2 2 2 1 1 0 1 1 1 1 2 2 2 3 3 3 2 2 2 2 2 1 2 2
2 2 2 2 2 2 2 1 1 2 3 3 3 3 4 4 3 3 3 2 2 3 2 1 2 2 3 3 3 2 2 3 3 3 3 3 3 3 3 2 2 3 3
3 3 2 2 2 2 2 2 2 2 2 2 2 2 2 2 2 2 2 2 2 3 1 2 3 3 3 3 3 3 3 3 3 3 3 3 3 3 3 3 3 3 3
2 2 2 3 3 3 3 3 3 2 2 2 2 2 2 2 2 1 2 3 1 1 1 3 3 4 3 3 3 3 3 2 2 3 3 4 4 4 3 4 4 4 4
2 2 2 2 2 2 2 2 2 2 2 2 1 2 1 0 1 2 3 2 2 2 3 3 4 4 4 4 4 3 3 3 3 3 4 4 4 4 4 5 5 5 4
3 3 2 2 2 2 2 2 2 2 2 2 2 2 1 0 0 1 2 2 2 3 3 4 4 4 4 4 4 3 3 3 4 4 4 4 4 5 5 5 5 5 5
2 3 3 2 2 2 2 3 3 3 3 3 3 3 3 3 3 3 3 3 3 4 4 4 4 4 4 4 4 4 4 4 4 4 4 4 4 5 5 5 5 5 4
2 2 2 2 2 2 2 3 3 3 4 4 3 3 4 3 3 3 4 4 4 4 4 4 4 4 5 5 5 5 5 5 5 5 5 4 4 4 4 4 4 4 4
2 2 2 2 2 3 3 3 3 4 4 4 4 3 3 4 4 4 5 5 4 4 4 4 4 4 4 5 6 6 6 7 6 6 6 5 5 5 5 5 5 5 5
2 2 2 2 2 3 3 3 4 4 4 4 4 4 4 5 5 5 5 5 4 4 4 4 5 6 6 6 6 8 8 8 8 7 7 6 6 5 5 5 5 6 6
2 2 2 3 3 3 4 4 4 4 4 5 5 5 5 5 5 5 5 5 5 5 5 5 5 6 7 8 7 8 10 11 10 8 7 6 6 6 6 6 6 5 5
2 3 3 3 3 4 4 4 4 5 5 5 5 5 5 5 5 5 5 5 5 5 5 5 6 7 8 8 9 10 11 12 12 11 8 6 6 6 6 6 7 6 6
Wind_Direction
170 172 167 180 184 170 173 192 189 184 175 174 176 163 144 121 109 116 131 134 146 146 141 161 174 154 145 144 135 136 136 139 156 242 287 360 49 40 31 44 30 21 19
184 175 175 177 163 171 193 205 186 177 169 169 158 155 159 153 145 139 164 156 164 179 189 161 171 150 148 149 146 153 161 159 155 171 279 22 23 13 37 34 23 17 8
178 177 178 179 176 191 195 192 181 176 167 155 149 161 174 179 173 184 180 180 185 199 191 181 182 150 159 159 153 157 163 156 144 155 173 169 9 48 51 22 15 1 353
175 179 186 196 195 198 186 172 173 171 168 176 182 187 198 198 185 175 162 173 188 194 187 188 185 175 181 176 169 170 153 141 138 144 154 165 217 23 87 52 347 348 337
174 190 204 201 184 178 173 173 168 167 173 175 165 184 205 197 201 179 177 179 177 190 194 202 198 181 187 181 175 173 160 153 149 150 160 141 176 162 198 204 209 323 323
187 213 212 184 173 173 180 173 164 165 166 164 178 189 208 239 221 184 165 171 178 182 218 255 227 181 195 190 185 180 172 170 175 169 173 188 217 209 187 179 168 116 295
191 205 199 192 192 188 188 170 178 186 174 186 198 199 228 247 234 209 183 167 173 194 210 212 212 216 187 183 177 171 182 184 181 178 186 206 205 202 177 180 187 192 224
177 191 188 187 197 191 178 184 200 194 191 203 211 216 233 257 236 216 193 177 177 202 216 211 202 216 197 159 155 155 187 211 201 192 197 212 212 195 186 190 193 185 277
198 197 193 184 188 185 185 197 200 192 208 214 209 208 221 257 237 209 182 175 197 230 239 220 200 217 212 165 155 169 204 262 232 204 204 214 220 198 173 145 142 146 246
223 215 202 192 192 197 202 203 201 199 215 210 217 221 222 243 245 212 182 178 204 235 253 245 219 211 207 184 180 182 202 232 225 210 201 223 218 203 188 184 182 180 200
234 218 200 199 205 205 204 201 195 196 194 205 224 248 244 248 250 226 191 185 206 219 231 245 241 217 207 199 195 203 212 202 192 187 198 254 220 203 206 203 197 190 194
192 200 208 211 214 204 192 197 187 179 184 204 221 265 276 267 254 238 224 221 208 208 227 234 231 213 211 208 207 215 197 172 166 167 185 235 250 251 241 219 211 210 214
176 212 221 215 212 194 188 191 184 182 191 206 209 236 268 276 265 259 244 236 224 219 228 224 221 211 206 212 212 207 186 175 173 188 216 233 236 239 228 212 207 211 243
194 233 235 214 222 207 199 195 192 200 205 210 216 234 251 261 261 258 254 247 235 236 237 231 213 196 187 203 212 215 211 201 196 207 219 227 218 200 206 204 213 216 246
208 232 236 214 208 207 214 215 213 217 211 209 216 214 220 243 254 244 220 229 220 210 168 136 133 173 193 220 233 232 223 212 218 218 210 211 210 205 218 202 199 194 214
212 235 235 215 207 200 205 266 293 252 260 249 235 219 234 244 252 233 230 226 197 169 135 173 209 218 221 222 227 235 230 228 228 222 214 213 215 214 217 205 196 206 230
216 232 234 213 204 208 204 204 259 319 328 302 281 253 244 254 233 217 213 192 162 151 155 207 221 225 233 232 226 225 230 233 221 214 217 218 219 217 211 214 214 221 239
221 231 229 219 209 210 212 214 212 224 267 296 300 282 255 240 212 191 138 100 108 171 222 225 230 230 231 233 237 234 234 230 222 223 224 222 218 216 220 224 222 223 235
226 232 230 221 209 207 205 205 209 213 225 246 291 310 302 253 182 161 138 153 198 224 234 238 236 233 231 230 235 238 232 228 230 227 229 227 223 219 225 229 230 231 230
240 252 243 220 204 202 201 206 214 219 228 235 241 245 241 140 208 207 202 206 219 230 235 237 238 236 231 227 228 230 235 237 232 230 235 232 227 223 227 229 230 232 233
248 257 264 250 221 212 209 218 222 222 230 238 246 248 226 217 225 224 225 227 231 237 240 243 241 236 232 228 225 225 227 236 236 234 236 237 232 229 230 229 231 233 235
239 246 240 236 237 231 227 223 226 231 235 240 251 250 237 234 235 235 235 239 238 244 247 244 246 242 234 227 224 224 229 233 236 236 236 236 234 233 232 228 227 230 232
228 237 247 242 233 242 238 232 234 238 242 243 242 240 232 234 238 242 243 242 244 247 250 244 246 251 248 235 228 225 227 233 232 227 227 230 231 230 229 229 227 226 229
234 237 240 239 237 234 236 241 245 248 247 246 244 242 240 240 243 245 245 247 246 248 248 247 247 247 246 244 239 234 234 235 229 225 222 225 228 229 227 230 229 228 230
241 242 242 239 237 238 243 247 249 251 252 250 249 250 248 248 248 249 250 248 244 245 245 246 250 249 247 246 248 246 241 237 233 229 223 223 225 225 225 227 228 227 231
251 252 254 251 245 243 245 247 248 249 250 254 255 252 251 251 251 251 250 248 248 250 252 251 249 251 254 252 251 251 249 243 237 233 224 220 225 227 224 226 226 223 225
Height
1520 1521 1522 1523 1524 1525 1526 1526 1527 1528 1529 1529 1530 1530 1530 1530 1530 1530 1531 1531 1531 1532 1532 1532 1532 1533 1533 1533 1534 1534 1535 1535 1535 1536 1536 1537 1537 1537 1537 1537 1537 1536 1536
1517 1519 1520 1521 1522 1523 1523 1524 1525 1526 1527 1527 1528 1528 1528 1528 1528 1529 1529 1529 1529 1529 1530 1530 1531 1531 1531 1532 1532 1533 1533 1533 1534 1534 1535 1535 1536 1536 1536 1536 1536 1535 1535
1515 1516 1517 1518 1519 1520 1521 1522 1523 1524 1524 1525 1526 1526 1526 1526 1527 1527 1527 1527 1527 1527 1528 1528 1529 1529 1530 1530 1530 1531 1531 1532 1532 1533 1533 1534 1534 1534 1534 1534 1534 1534 1533
1511 1513 1514 1515 1516 1518 1518 1519 1520 1521 1522 1523 1523 1524 1524 1524 1525 1525 1525 1525 1525 1526 1526 1526 1527 1527 1528 1528 1528 1529 1529 1530 1530 1531 1531 1532 1532 1532 1532 1532 1532 1532 1532
1508 1510 1511 1512 1514 1515 1516 1517 1518 1518 1519 1520 1521 1521 1522 1522 1522 1522 1523 1523 1523 1523 1524 1524 1525 1525 1526 1526 1527 1527 1527 1528 1528 1528 1529 1530 1530 1530 1530 1530 1530 1530 1530
1505 1507 1508 1510 1511 1512 1513 1514 1515 1516 1516 1517 1518 1518 1519 1519 1520 1520 1520 1520 1521 1521 1521 1522 1523 1523 1524 1524 1525 1525 1526 1526 1526 1526 1527 1527 1528 1528 1528 1528 1528 1527 1527
1503 1504 1505 1507 1508 1509 1511 1512 1513 1513 1514 1514 1515 1515 1516 1517 1517 1517 1518 1518 1518 1518 1519 1519 1520 1521 1521 1522 1522 1523 1523 1523 1524 1525 1525 1525 1525 1525 1526 1526 1526 1526 1525
1501 1502 1503 1504 1505 1507 1508 1509 1510 1511 1511 1512 1512 1513 1513 1514 1514 1514 1515 1515 1515 1516 1516 1517 1517 1518 1518 1519 1519 1520 1520 1520 1521 1521 1522 1522 1523 1523 1523 1524 1523 1523 1523
1498 1499 1500 1501 1502 1503 1504 1506 1507 1508 1508 1509 1509 1510 1510 1511 1512 1512 1512 1512 1513 1513 1514 1514 1514 1515 1515 1516 1516 1516 1516 1517 1518 1518 1519 1519 1520 1520 1520 1521 1520 1520 1520
1496 1497 1498 1499 1500 1500 1502 1503 1504 1505 1505 1506 1506 1507 1507 1508 1509 1509 1509 1509 1509 1510 1510 1511 1511 1512 1512 1512 1513 1513 1513 1513 1514 1515 1515 1516 1516 1517 1517 1517 1517 1517 1517
1494 1495 1495 1496 1497 1498 1499 1500 1501 1501 1502 1503 1503 1504 1504 1504 1505 1506 1506 1506 1506 1506 1507 1507 1508 1508 1508 1509 1509 1509 1510 1510 1511 1511 1512 1512 1512 1513 1513 1513 1513 1514 1514
1492 1492 1492 1493 1494 1494 1495 1496 1497 1498 1498 1499 1499 1500 1500 1501 1502 1502 1502 1503 1503 1503 1503 1503 1504 1504 1505 1505 1506 1506 1506 1507 1507 1507 1507 1508 1508 1509 1509 1509 1509 1509 1510
1489 1489 1489 1490 1490 1491 1491 1492 1493 1493 1494 1494 1495 1495 1496 1497 1498 1498 1498 1499 1499 1499 1499 1499 1500 1500 1501 1501 1502 1502 1502 1502 1502 1503 1503 1503 1504 1505 1505 1505 1505 1506 1506
1486 1486 1486 1487 1487 1487 1488 1488 1489 1489 1490 1490 1490 1491 1492 1492 1493 1493 1494 1494 1494 1494 1494 1495 1495 1496 1496 1497 1497 1498 1498 1498 1498 1498 1499 1499 1500 1500 1500 1501 1501 1501 1501
1483 1483 1483 1483 1483 1484 1484 1484 1484 1485 1486 1486 1487 1487 1487 1487 1488 1489 1489 1489 1489 1490 1490 1490 1490 1491 1491 1492 1493 1493 1494 1494 1494 1494 1494 1495 1495 1495 1496 1496 1496 1497 1496
1479 1479 1479 1479 1479 1480 1480 1480 1481 1482 1482 1483 1483 1483 1483 1484 1484 1484 1485 1485 1485 1485 1485 1484 1485 1485 1486 1487 1487 1488 1489 1489 1489 1490 1490 1490 1491 1491 1491 1492 1492 1492 1491
1476 1475 1475 1475 1475 1475 1476 1476 1476 1477 1478 1478 1478 1479 1479 1479 1479 1480 1480 1480 1480 1480 1480 1479 1480 1481 1481 1482 1482 1483 1484 1484 1485 1485 1485 1485 1486 1486 1486 1487 1487 1487 1487
1473 1472 1472 1471 1471 1471 1472 1472 1472 1472 1472 1472 1473 1474 1474 1474 1475 1475 1475 1475 1474 1474 1475 1475 1475 1476 1476 1477 1477 1478 1478 1479 1480 1480 1480 1480 1481 1481 1481 1481 1481 1482 1482
1469 1468 1468 1468 1467 1468 1468 1468 1468 1468 1468 1468 1468 1469 1470 1470 1470 1470 1470 1469 1469 1469 1470 1470 1470 1471 1471 1472 1472 1473 1473 1474 1474 1475 1475 1475 1476 1476 1476 1476 1476 1476 1477
1465 1464 1464 1464 1464 1464 1464 1464 1464 1464 1464 1464 1464 1464 1465 1464 1464 1464 1464 1464 1464 1464 1465 1465 1465 1465 1465 1466 1466 1467 1467 1468 1468 1469 1469 1470 1470 1470 1470 1471 1471 1471 1471
1461 1460 1460 1460 1460 1460 1459 1460 1460 1460 1459 1459 1460 1460 1460 1460 1459 1459 1459 1459 1459 1459 1459 1459 1459 1459 1460 1460 1461 1461 1461 1462 1463 1463 1464 1464 1464 1464 1465 1465 1465 1465 1465
1457 1456 1456 1455 1455 1455 1455 1455 1455 1455 1455 1455 1455 1455 1455 1455 1455 1455 1454 1454 1454 1454 1454 1454 1453 1453 1454 1454 1455 1455 1456 1456 1457 1458 1458 1458 1458 1458 1459 1459 1459 1459 1459
1452 1452 1451 1451 1451 1451 1450 1450 1450 1450 1450 1450 1450 1450 1450 1450 1449 1449 1449 1449 1449 1449 1449 1448 1448 1448 1448 1449 1449 1450 1450 1450 1451 1452 1452 1452 1452 1453 1453 1453 1453 1453 1453
1448 1447 1447 1446 1446 1446 1445 1445 1445 1445 1445 1445 1445 1445 1445 1444 1444 1444 1444 1443 1443 1443 1443 1443 1442 1442 1442 1442 1443 1443 1444 1445 1445 1446 1446 1446 1446 1446 1446 1447 1447 1447 1447
1444 1444 1443 1442 1442 1441 1441 1440 1440 1440 1440 1440 1439 1439 1439 1439 1438 1438 1438 1437 1437 1437 1436 1437 1436 1436 1436 1436 1436 1437 1437 1438 1439 1439 1440 1440 1440 1440 1440 1440 1441 1441 1441
1440 1440 1439 1438 1437 1437 1436 1436 1435 1435 1435 1434 1434 1434 1433 1433 1432 1432 1431 1431 1431 1431 1431 1430 1430 1430 1430 1430 1430 1430 1430 1431 1432 1433 1433 1433 1433 1433 1434 1434 1434 1435 1435